www.pogodaiklimat.ru

Погода и климат >> Архив погоды >> Австралия >> Marree Aero


ПОГОДА в Marree Aero

  • Прогноз погоды в Marree Aero
  • Монитор погоды в Marree Aero
  • Климат города

АРХИВ ПОГОДЫ в Marree Aero

Время (UTC), дата Ветер
(напр.,м/с)
 
Видим.   Явления Облачность Т
(С)
Тd
(С)
f
(%)
Тe
(С)
Тes
(С)
Комфортность P
(гПа)
Po
(гПа)
Тmin
(С)
Tmax
(С)
R
(мм)
R24
(мм)
S
(см)
05 17.05 З 7 н/о н/о +23.0 +7.1 36 +24 +24 комфорт 1012.4 1006.4
04 17.05 З 5 н/о н/о +22.9 +7.8 38 +24 +24 комфорт 1012.6 1006.6
06 17.05 З 7 н/о н/о +22.3 +6.5 36 +23 +23 комфорт 1012.8 1006.8
07 17.05 С 3 н/о н/о +19.8 +10.8 56 +21 +21 комфорт 1012.0 1006.0
08 17.05 С 4 н/о н/о +19.1 +9.9 55 +20 +20 1012.9 1006.9
09 17.05 С 3 н/о н/о +18.3 +10.7 61 +19 +19 1013.2 1007.2
11 17.05 С 3 н/о н/о +16.9 +11.6 71 +17 +17 1013.8 1007.8
10 17.05 С 3 н/о н/о +17.8 +10.9 64 +18 +18 1013.6 1007.6
12 17.05 С 3 н/о н/о +16.1 +12.1 77 +16 +16 1014.1 1008.1
13 17.05 С 3 н/о н/о +15.3 +11.9 80 +15 +15 1014.6 1008.6
14 17.05 СЗ 2 н/о н/о +14.2 +11.4 83 +14 +14 1014.0 1008.0
15 17.05 СВ 1 н/о н/о +13.2 +12.1 93 +14 +14 1013.9 1007.9
17 17.05 С 3 н/о н/о +11.2 +10.4 95 +9 +9 1014.2 1008.2
16 17.05 ЮЗ 3 н/о н/о +11.7 +10.9 95 +10 +10 1013.7 1007.7
18 17.05 З 3 н/о н/о +10.0 +9.4 96 +8 +8 1013.9 1007.9
19 17.05 З 2 н/о н/о +10.6 +10.1 97 +9 +9 1014.1 1008.1
20 17.05 штиль 0 н/о н/о +10.7 +10.2 97 +10 +10 1014.6 1008.6
21 17.05 штиль 0 н/о н/о +9.1 +8.6 97 +8 +8 1014.9 1008.9
23 17.05 С 2 н/о н/о +14.5 +13.7 95 +14 +14 1015.9 1009.9
22 17.05 штиль 0 н/о н/о +9.3 +8.8 97 +8 +8 1015.4 1009.4
00 18.05 С 4 н/о н/о +17.6 +13.9 79 +17 +17 1016.1 1010.1
01 18.05 СЗ 5 н/о н/о +19.8 +13.3 66 +21 +21 комфорт 1016.2 1010.2
02 18.05 СЗ 5 н/о н/о +21.5 +9.4 46 +23 +23 комфорт 1015.7 1009.7
03 18.05 З 5 н/о н/о +22.1 +9.9 46 +24 +24 комфорт 1014.9 1008.9
05 18.05 З 6 н/о н/о +22.1 +8.9 43 +23 +23 комфорт 1014.1 1008.1
04 18.05 СЗ 5 н/о н/о +24.0 +8.8 38 +25 +25 комфорт 1014.3 1008.3
06 18.05 СЗ 5 н/о н/о +22.5 +9.0 42 +24 +24 комфорт 1014.3 1008.3
07 18.05 З 7 н/о н/о +21.7 +8.6 43 +23 +23 комфорт 1014.7 1008.7
08 18.05 Ю 4 н/о н/о +18.6 +10.4 59 +19 +19 1015.5 1009.5
09 18.05 ЮВ 1 н/о н/о +16.8 +10.0 64 +18 +18 1016.1 1010.1
11 18.05 З 2 н/о н/о +14.6 +9.6 72 +14 +14 1017.0 1011.0
10 18.05 СЗ 2 н/о н/о +15.8 +9.5 66 +16 +16 1016.6 1010.6
12 18.05 В 1 н/о н/о +13.3 +9.2 76 +14 +14 1017.2 1011.2
13 18.05 штиль 0 н/о н/о +12.0 +8.5 79 +12 +12 1017.0 1011.0
14 18.05 ЮЗ 2 н/о н/о +11.6 +8.6 82 +10 +10 1016.9 1010.9
15 18.05 ЮВ 2 н/о н/о +10.6 +8.0 84 +9 +9 1016.7 1010.7
17 18.05 С 2 н/о н/о +9.7 +8.9 95 +8 +8 1016.7 1010.7
16 18.05 С 2 н/о н/о +9.9 +8.2 89 +9 +9 1016.7 1010.7
18 18.05 штиль 0 н/о н/о +8.8 +8.0 95 +8 +8 1016.8 1010.8
19 18.05 Ю 1 н/о н/о +8.4 +7.6 95 +9 +9 1016.9 1010.9
20 18.05 штиль 0 н/о н/о +7.9 +7.0 94 +7 +7 1017.1 1011.1
21 18.05 Ю 2 н/о н/о +7.7 +6.8 94 +6 +6 1017.5 1011.5
23 18.05 В 2 н/о н/о +12.4 +9.6 83 +11 +11 1018.4 1012.4
22 18.05 ЮВ 2 н/о н/о +8.3 +7.5 95 +7 +7 1018.0 1012.0
00 19.05 ЮВ 2 н/о н/о +16.3 +11.0 71 +17 +17 1018.4 1012.4
01 19.05 СВ 1 н/о н/о +19.4 +10.9 58 +22 +22 комфорт 1018.1 1012.1
02 19.05 С 3 н/о н/о +20.5 +10.6 53 +23 +23 комфорт 1017.4 1011.4
03 19.05 СЗ 4 н/о н/о +21.4 +9.6 47 +23 +23 комфорт 1016.2 1010.2
05 19.05 З 5 н/о н/о +21.9 +8.8 43 +23 +23 комфорт 1014.8 1008.8
04 19.05 С 3 н/о н/о +21.4 +8.7 44 +23 +23 комфорт 1015.4 1009.4
06 19.05 СЗ 5 н/о н/о +22.3 +7.3 38 +23 +23 комфорт 1014.7 1008.7
07 19.05 З 4 н/о н/о +20.8 +7.8 43 +22 +22 комфорт 1014.7 1008.7
08 19.05 З 4 н/о н/о +19.3 +7.4 46 +20 +20 1015.0 1009.0
09 19.05 З 3 н/о н/о +17.0 +7.4 53 +17 +17 1015.5 1009.5
11 19.05 З 3 н/о н/о +13.8 +6.4 61 +13 +13 1016.4 1010.4
10 19.05 З 2 н/о н/о +15.7 +7.2 57 +16 +16 1016.0 1010.0
12 19.05 штиль 0 н/о н/о +12.3 +5.5 63 +12 +12 1016.5 1010.5
13 19.05 штиль 0 н/о н/о +12.7 +6.5 66 +12 +12 1016.4 1010.4
14 19.05 ЮВ 2 н/о н/о +12.3 +6.1 66 +11 +11 1016.5 1010.5
15 19.05 С 3 н/о н/о +11.5 +6.0 69 +10 +10 1016.7 1010.7
17 19.05 ЮЗ 1 н/о н/о +9.9 +5.9 76 +10 +10 1016.1 1010.1
16 19.05 Ю 2 н/о н/о +11.0 +5.5 69 +10 +10 1016.3 1010.3
18 19.05 ЮВ 3 н/о н/о +9.7 +6.1 78 +8 +8 1015.9 1009.9
19 19.05 СВ 3 н/о н/о +8.4 +5.0 79 +6 +6 1015.8 1009.8
20 19.05 В 4 н/о н/о +8.1 +6.1 87 +5 +5 1015.9 1009.9
21 19.05 ЮВ 4 н/о н/о +8.3 +7.5 95 +5 +5 1016.5 1010.5
23 19.05 Ю 3 н/о н/о +12.3 +9.1 81 +11 +11 1017.5 1011.5
22 19.05 Ю 4 н/о н/о +9.2 +8.4 95 +6 +6 1017.0 1011.0
00 20.05 штиль 0 н/о н/о +16.4 +8.9 61 +16 +16 1018.1 1012.1
01 20.05 С 2 н/о н/о +18.4 +9.5 56 +19 +19 1017.9 1011.9
02 20.05 СЗ 5 н/о н/о +21.1 +9.7 48 +22 +22 комфорт 1017.1 1011.1
03 20.05 СЗ 5 н/о н/о +22.2 +7.2 38 +23 +23 комфорт 1016.4 1010.4
05 20.05 СЗ 4 н/о н/о +22.2 +7.2 38 +23 +23 комфорт 1015.4 1009.4
04 20.05 СЗ 4 н/о н/о +22.3 +7.3 38 +23 +23 комфорт 1015.7 1009.7
06 20.05 С 5 н/о н/о +22.1 +6.3 36 +23 +23 комфорт 1015.5 1009.5
07 20.05 СЗ 3 н/о н/о +21.7 +6.0 36 +22 +22 комфорт 1015.6 1009.6
08 20.05 СЗ 3 н/о н/о +19.6 +7.0 44 +21 +21 комфорт 1016.1 1010.1
09 20.05 З 4 н/о н/о +16.6 +6.4 51 +16 +16 1016.7 1010.7
11 20.05 штиль 0 н/о н/о +14.6 +6.2 57 +14 +14 1017.7 1011.7
10 20.05 З 2 н/о н/о +15.3 +6.1 54 +15 +15 1017.3 1011.3
12 20.05 штиль 0 н/о н/о +13.1 +5.0 58 +13 +13 1017.8 1011.8
13 20.05 СВ 1 н/о н/о +10.8 +3.8 62 +12 +12 1017.8 1011.8
14 20.05 штиль 0 н/о н/о +10.9 +4.4 64 +11 +11 1017.8 1011.8
15 20.05 ЮВ 2 н/о н/о +9.2 +3.8 69 +8 +8 1017.6 1011.6
17 20.05 С 3 н/о н/о +8.6 +4.0 73 +6 +6 1017.3 1011.3
16 20.05 С 3 н/о н/о +9.3 +4.3 71 +7 +7 1017.6 1011.6
18 20.05 СВ 4 н/о н/о +8.6 +4.8 77 +6 +6 1017.2 1011.2
19 20.05 В 4 н/о н/о +8.4 +5.3 81 +5 +5 1017.3 1011.3
20 20.05 В 4 н/о н/о +8.1 +6.6 90 +5 +5 1017.8 1011.8
21 20.05 ЮВ 4 н/о н/о +8.2 +6.7 90 +5 +5 1018.3 1012.3
23 20.05 ЮВ 2 н/о н/о +13.5 +7.1 65 +13 +13 1019.5 1013.5
22 20.05 Ю 3 н/о н/о +9.1 +6.5 84 +7 +7 1018.8 1012.8
00 21.05 В 3 н/о н/о +16.9 +6.7 51 +17 +17 1019.7 1013.7
01 21.05 СВ 6 н/о н/о +21.0 +6.2 38 +22 +22 комфорт 1019.5 1013.5
02 21.05 С 6 н/о н/о +23.2 +6.1 33 +24 +24 комфорт 1018.9 1012.9
03 21.05 С 6 н/о н/о +24.1 +5.9 31 +24 +24 комфорт 1017.8 1011.8
05 21.05 С 5 н/о н/о +25.1 +5.3 28 +25 +25 комфорт 1016.6 1010.6
04 21.05 С 4 н/о н/о +24.8 +5.6 29 +24 +24 комфорт 1017.2 1011.2
06 21.05 С 5 н/о н/о +24.7 +5.0 28 +24 +24 комфорт 1016.4 1010.4
07 21.05 СВ 5 н/о н/о +24.6 +4.9 28 +24 +24 комфорт 1016.5 1010.5
08 21.05 СВ 3 н/о н/о +22.5 +5.0 32 +23 +23 комфорт 1016.8 1010.8
09 21.05 СВ 4 н/о н/о +19.5 +4.8 38 +20 +20 1017.1 1011.1
11 21.05 В 5 н/о н/о +16.3 +5.0 47 +15 +15 1017.5 1011.5
10 21.05 СВ 5 н/о н/о +18.1 +5.3 43 +18 +18 1017.6 1011.6
12 21.05 СВ 6 н/о н/о +18.3 +5.8 44 +18 +18 1017.9 1011.9
13 21.05 СЗ 2 н/о н/о +15.2 +5.1 51 +15 +15 1018.8 1012.8
14 21.05 З 2 н/о н/о +12.4 +4.1 57 +12 +12 1018.6 1012.6
15 21.05 штиль 0 н/о н/о +11.8 +4.1 59 +12 +12 1018.6 1012.6
17 21.05 ЮВ 4 н/о н/о +10.1 +4.0 66 +8 +8 1018.3 1012.3
16 21.05 В 3 н/о н/о +10.0 +2.8 61 +8 +8 1018.4 1012.4
18 21.05 ЮВ 4 н/о н/о +9.7 +4.5 70 +7 +7 1017.9 1011.9
19 21.05 В 3 н/о н/о +10.4 +5.6 72 +9 +9 1018.0 1012.0
20 21.05 ЮВ 2 н/о н/о +9.6 +5.4 75 +8 +8 1018.1 1012.1
21 21.05 В 3 н/о н/о +10.2 +5.8 74 +8 +8 1018.3 1012.3
23 21.05 СВ 7 н/о н/о +17.0 +7.1 52 +16 +16 1018.9 1012.9
22 21.05 В 3 н/о н/о +11.6 +6.1 69 +10 +10 1018.7 1012.7
00 22.05 СВ 8 н/о н/о +19.5 +8.2 48 +20 +20 1018.8 1012.8
01 22.05 СВ 8 н/о н/о +22.6 +9.4 43 +24 +24 комфорт 1018.2 1012.2
02 22.05 СВ 9 н/о н/о +25.0 +12.6 46 +27 +27 жарко 1017.2 1011.2
03 22.05 С 8 н/о н/о +25.8 +13.0 45 +28 +28 жарко 1016.0 1010.0
05 22.05 С 8 н/о н/о +27.9 +9.7 32 +28 +28 жарко 1014.2 1008.2
04 22.05 С 9 н/о н/о +26.9 +10.6 36 +28 +28 жарко 1014.8 1008.8
06 22.05 С 8 н/о н/о +28.0 +8.3 29 +28 +28 жарко 1013.8 1007.8
07 22.05 С 7 н/о н/о +27.6 +6.4 26 +27 +27 жарко 1013.6 1007.6
08 22.05 С 5 н/о н/о +25.3 +6.0 29 +25 +25 комфорт 1013.9 1007.9
09 22.05 С 4 н/о н/о +24.3 +5.6 30 +24 +24 комфорт 1014.4 1008.4
11 22.05 З 2 н/о н/о +18.6 +9.9 57 +20 +20 1015.5 1009.5
10 22.05 С 4 н/о н/о +21.0 +8.0 43 +23 +23 комфорт 1015.0 1009.0
12 22.05 штиль 0 н/о н/о +17.5 +10.6 64 +18 +18 1015.8 1009.8
13 22.05 В 2 н/о н/о +15.7 +10.0 69 +16 +16 1016.2 1010.2
14 22.05 С 4 н/о н/о +14.7 +8.4 66 +14 +14 1016.1 1010.1
15 22.05 С 3 н/о н/о +14.6 +8.5 67 +14 +14 1016.0 1010.0
17 22.05 С 1 н/о н/о +11.9 +8.4 79 +13 +13 1015.8 1009.8
16 22.05 ЮВ 2 н/о н/о +13.2 +7.9 70 +13 +13 1015.7 1009.7
18 22.05 В 4 н/о н/о +12.5 +6.8 68 +11 +11 1015.9 1009.9
19 22.05 ЮВ 4 н/о н/о +14.7 +10.3 75 +13 +13 1016.7 1010.7
20 22.05 Ю 4 н/о н/о +14.7 +9.7 72 +13 +13 1017.2 1011.2
21 22.05 С 6 н/о н/о +15.4 +10.4 72 +14 +14 1018.0 1012.0
23 22.05 Ю 8 н/о н/о +17.4 +10.5 64 +16 +16 1019.2 1013.2
22 22.05 Ю 8 н/о н/о +15.8 +10.6 71 +14 +14 1018.5 1012.5
00 23.05 Ю 8 н/о н/о +20.7 +9.3 48 +22 +22 комфорт 1019.4 1013.4
01 23.05 Ю 8 н/о н/о +22.2 +8.3 41 +23 +23 комфорт 1019.7 1013.7
02 23.05 Ю 8 н/о н/о +22.7 +7.7 38 +24 +24 комфорт 1019.7 1013.7
03 23.05 ЮЗ 7 н/о н/о +23.6 +6.4 33 +24 +24 комфорт 1018.8 1012.8
05 23.05 ЮЗ 9 н/о н/о +24.2 +5.5 30 +24 +24 комфорт 1017.9 1011.9
04 23.05 ЮЗ 8 н/о н/о +24.6 +4.9 28 +24 +24 комфорт 1018.0 1012.0
06 23.05 З 9 н/о н/о +23.7 +5.1 30 +24 +24 комфорт 1017.9 1011.9
07 23.05 ЮЗ 8 н/о н/о +22.4 +4.5 31 +23 +23 комфорт 1018.2 1012.2
08 23.05 З 6 н/о н/о +20.3 +4.8 36 +21 +21 комфорт 1019.0 1013.0
09 23.05 ЮЗ 5 н/о н/о +18.2 +2.1 34 +18 +18 1019.9 1013.9
11 23.05 ЮЗ 4 н/о н/о +12.0 +1.1 47 +10 +10 1021.5 1015.4
10 23.05 ЮЗ 4 н/о н/о +15.0 +1.2 39 +14 +14 1020.7 1014.7
12 23.05 ЮЗ 4 н/о н/о +11.2 +1.2 50 +9 +9 1022.1 1016.0
13 23.05 Ю 5 н/о н/о +12.2 +1.8 49 +10 +10 1022.3 1016.2
14 23.05 ЮЗ 4 н/о н/о +9.7 +1.6 57 +7 +7 1022.3 1016.2
15 23.05 ЮЗ 3 н/о н/о +8.5 +1.2 60 +7 +7 1022.3 1016.2
17 23.05 Ю 2 н/о н/о +8.6 +1.1 59 +8 +8 1022.5 1016.4
16 23.05 ЮВ 1 н/о н/о +9.2 +1.9 60 +9 +9 1022.4 1016.3
18 23.05 ЮЗ 5 н/о н/о +8.9 +2.3 63 +6 +6 1022.2 1016.1
19 23.05 ЮЗ 5 н/о н/о +10.7 +3.7 62 +8 +8 1022.4 1016.3
20 23.05 Ю 6 н/о н/о +10.7 +5.0 68 +8 +8 1022.9 1016.8
21 23.05 Ю 3 н/о н/о +8.5 +3.9 73 +6 +6 1023.5 1017.4
23 23.05 Ю 3 н/о н/о +12.1 +5.7 65 +11 +11 1024.5 1018.4
22 23.05 ЮВ 2 н/о н/о +7.6 +3.5 75 +6 +6 1024.1 1018.0
00 24.05 Ю 6 н/о н/о +16.8 +9.0 60 +16 +16 1024.7 1018.6
01 24.05 Ю 6 н/о н/о +18.7 +10.0 57 +19 +19 1024.5 1018.4
02 24.05 Ю 5 н/о н/о +20.0 +9.3 50 +21 +21 комфорт 1023.9 1017.8
03 24.05 Ю 5 н/о н/о +21.5 +9.1 45 +23 +23 комфорт 1022.9 1016.8
04 24.05 Ю 5 н/о н/о +21.8 +8.0 41 +23 +23 комфорт 1022.0 1015.9

 

Местоположение метеостанции Marree Aero (Южная Австралия, Австралия): широта -29.66 долгота 138.06 высота над уровнем моря 51 м.

В архиве по умолчанию представлена погода в Marree Aero за последнюю неделю. Архивные данные за месяц целиком и за предыдущие месяцы, начиная с января 2011 года, Вы можете получить, выбрав интересующий диапазон дат из раскрывающегося списка и нажав кнопку "Ввод!".

Внимание! Время в таблицах - всемирное. Для получения местного времени необходимо прибавить поправку, которая в Marree Aero равна 9.5 ч.

Смотрите также архив погоды в соседних городах и на ближайших метеорологических станциях:

Погода в Leigh Creek Airport (Южная Австралия, Австралия) (110 км)
Погода в Olympic Dam Aerodrome (Южная Австралия, Австралия) (146 км)
Погода в Woomera Aerodrome (Южная Австралия, Австралия) (205 км)
Погода в Moomba Airport (Южная Австралия, Австралия) (271 км)
Погода в Port Augusta Arid Lands (Южная Австралия, Австралия) (320 км)
Погода в Coober Pedy Airport (Южная Австралия, Австралия) (332 км)
Погода в Oodnadatta Airport (Южная Австралия, Австралия) (346 км)
Погода в Yunta Airstrip (Южная Австралия, Австралия) (354 км)
Погода в Tarcoola Aero (Южная Австралия, Австралия) (355 км)
Погода в Whyalla Airport (Южная Австралия, Австралия) (383 км)

Пояснения к столбцам:

Ветер - указаны скорость ветра в м/с - средняя за 10 мин, порывы в срок и между сроками (в фигурных скобках) и направление, откуда дует ветер: С - северный, СВ - северо-восточный, В - восточный, ЮВ - юго-восточный, Ю - южный, ЮЗ - юго-западный, З - западный, СЗ - северо-западный.
Видимость - горизонтальная дальность видимости в метрах или километрах. При видимости от 1 до 10 км при отсутствии осадков обычно наблюдается дымка, при ухудшении видимости до 1 км и менее - туман. В сухую погоду видимость может ухудшаться дымом, пылью или мглою.
Явления - указаны атмосферные явления, наблюдавшиеся в срок или в последний час перед сроком; фигурными скобками обозначены явления, наблюдавшиеся между сроками (за 1-3 часа до срока); квадратными скобками обозначены град или гололедные отложения с указанием их диаметра в мм.
Облачность - указаны через наклонную черту общая и нижняя облачность в баллах и высота нижней границы облаков в метрах; квадратными скобками обозначены формы облаков: Ci - перистые, Cs - перисто-слоистые, Cc - перисто-кучевые, Ac - высококучевые, As - высокослоистые, Sc - слоисто-кучевые, Ns - слоисто-дождевые, Cu - кучевые, Cb - кучево-дождевые. Подробнее классификацию облаков см. в Атласе облаков (PDF).
T - Температура воздуха - температура, измеренная на высоте 2 м над землей.
Td - Температура точки росы - температура, при понижении до которой содержащийся в воздухе водяной пар достигнет насыщения.
f - Относительная влажность воздуха - влажноcть воздуха, измеренная на высоте 2 м над землей.
Te - Эффективная температура - температура, которую ощущает одетый по сезону человек в тени. Характеристика душности погоды. При расчете учитывается влияние влажности воздуха и скорости ветра на теплоощущения человека.
Tes - Эффективная температура на солнце - температура, которую ощущает человек, с поправкой на солнечный нагрев. Характеристика знойности погоды. Зависит от высоты солнца над горизонтом, облачности и скорости ветра. Ночью, в пасмурную погоду, а также при ветре 12 м/с и более поправка равна нулю.
P - Атмосферное давление - приведенное к уровню моря атмосферное давление.
Po - Атмосферное давление - измеренное на уровне метеостанции атмосферное давление.
Tmin - Минимальная температура - минимум температуры воздуха на высоте 2 м над землей.
Tmax - Максимальная температура - максимум температуры воздуха на высоте 2 м над землей.
R - Количество осадков - Количество выпавших осадков за период времени, мм. При наведении курсора мыши на число - период времени, за который выпало указанное количество осадков.
R24 - Количество осадков - Количество выпавших осадков за 24 часа, мм.
S - Снежный покров - Высота снежного покрова, см. При наведении курсора мыши на число - состояние снежного покрова и степень покрытия местности в баллах.